When you browse on this site, cookies collect data to enhance your experience and personalize the content and advertising you see.
Visit our Privacy Policy to learn more. By continuing to use the site, you agree to this use of cookies and data.
EN

Hourly Weather Toretsk (Dzerzhinsk)

Today, 15 July, Wednesday

Time Temperature Precipitation Wind Pressure Humidity
00:00 +16°C° 0 mm 6 mps 741 mmHg 74%
01:00 +15°C° 0 mm 6 mps 742 mmHg 77%
02:00 +15°C° 0 mm 6 mps 742 mmHg 81%
03:00 +15°C° 0 mm 6 mps 742 mmHg 83%
04:00 +15°C° 0 mm 6 mps 742 mmHg 81%
05:00 +15°C° 0 mm 7 mps 743 mmHg 79%
06:00 +15°C° 0 mm 7 mps 743 mmHg 78%
07:00 +16°C° 0 mm 7 mps 743 mmHg 72%
08:00 +18°C° 0 mm 7 mps 744 mmHg 67%
09:00 +20°C° 0 mm 6 mps 744 mmHg 62%
10:00 +21°C° 0 mm 6 mps 744 mmHg 57%
11:00 +22°C° 0 mm 6 mps 745 mmHg 53%
12:00 +23°C° 0 mm 6 mps 745 mmHg 48%
13:00 +24°C° 0 mm 6 mps 745 mmHg 46%
14:00 +24°C° 0 mm 6 mps 745 mmHg 44%
15:00 +26°C° 0 mm 6 mps 745 mmHg 42%
16:00 +25°C° 0 mm 5 mps 745 mmHg 44%
17:00 +25°C° 0 mm 5 mps 745 mmHg 46%
18:00 +25°C° 0 mm 4 mps 745 mmHg 48%
19:00 +22°C° 0 mm 3 mps 745 mmHg 53%
20:00 +21°C° 0 mm 2 mps 745 mmHg 57%
21:00 +20°C° 0 mm 1 mps 746 mmHg 61%
22:00 +20°C° 0 mm 1 mps 746 mmHg 62%
23:00 +18°C° 0 mm 2 mps 746 mmHg 63%

Tomorrow, 16 July, Thursday

Time Temperature Precipitation Wind Pressure Humidity
00:00 +18°C° 0 mm 2 mps 746 mmHg 64%
01:00 +17°C° 0 mm 2 mps 746 mmHg 65%
02:00 +17°C° 0 mm 2 mps 746 mmHg 67%
03:00 +16°C° 0 mm 2 mps 746 mmHg 69%
04:00 +16°C° 0 mm 1 mps 746 mmHg 69%
05:00 +18°C° 0 mm 1 mps 746 mmHg 69%
06:00 +18°C° 0 mm 1 mps 745 mmHg 69%
07:00 +20°C° 0 mm 1 mps 746 mmHg 62%
08:00 +22°C° 0 mm 1 mps 746 mmHg 55%
09:00 +24°C° 0 mm 2 mps 746 mmHg 48%
10:00 +25°C° 0 mm 2 mps 746 mmHg 44%
11:00 +26°C° 0 mm 2 mps 746 mmHg 41%
12:00 +27°C° 0 mm 2 mps 746 mmHg 37%
13:00 +27°C° 0 mm 2 mps 745 mmHg 36%
14:00 +28°C° 0 mm 3 mps 745 mmHg 36%
15:00 +28°C° 0 mm 3 mps 745 mmHg 35%
16:00 +27°C° 0 mm 3 mps 745 mmHg 38%
17:00 +27°C° 0 mm 3 mps 744 mmHg 41%
18:00 +26°C° 0 mm 3 mps 744 mmHg 44%
19:00 +25°C° 0 mm 3 mps 744 mmHg 48%
20:00 +24°C° 0 mm 2 mps 744 mmHg 52%
21:00 +21°C° 0 mm 2 mps 745 mmHg 56%
22:00 +21°C° 0 mm 2 mps 744 mmHg 57%
23:00 +20°C° 0 mm 2 mps 744 mmHg 57%

Day after tomorrow, 17 July, Friday

Time Temperature Precipitation Wind Pressure Humidity
00:00 +20°C° 0 mm 2 mps 744 mmHg 58%
01:00 +19°C° 0 mm 2 mps 744 mmHg 60%
02:00 +19°C° 0 mm 2 mps 744 mmHg 61%
03:00 +19°C° 0 mm 2 mps 744 mmHg 63%
04:00 +19°C° 0 mm 2 mps 744 mmHg 64%
05:00 +19°C° 0 mm 2 mps 744 mmHg 65%
06:00 +19°C° 0 mm 2 mps 744 mmHg 66%
07:00 +20°C° 0 mm 3 mps 744 mmHg 62%
08:00 +22°C° 0 mm 3 mps 745 mmHg 58%
09:00 +24°C° 0 mm 3 mps 745 mmHg 53%
10:00 +25°C° 0 mm 3 mps 745 mmHg 49%
11:00 +27°C° 0 mm 3 mps 745 mmHg 45%
12:00 +28°C° 0 mm 3 mps 745 mmHg 41%
13:00 +28°C° 0 mm 3 mps 745 mmHg 41%
14:00 +28°C° 0 mm 2 mps 744 mmHg 42%
15:00 +28°C° 0 mm 2 mps 744 mmHg 42%
16:00 +27°C° 0 mm 2 mps 744 mmHg 45%
17:00 +27°C° 0 mm 3 mps 744 mmHg 47%
18:00 +26°C° 0 mm 3 mps 744 mmHg 50%
19:00 +25°C° 0 mm 3 mps 744 mmHg 54%
20:00 +24°C° 0 mm 3 mps 744 mmHg 58%
21:00 +22°C° 0 mm 4 mps 745 mmHg 62%
22:00 +21°C° 0 mm 3 mps 745 mmHg 65%
23:00 +21°C° 0 mm 3 mps 745 mmHg 68%

18 July, Saturday

Time Temperature Precipitation Wind Pressure Humidity
00:00 +20°C° 0 mm 3 mps 745 mmHg 72%
01:00 +19°C° 0 mm 3 mps 745 mmHg 73%
02:00 +19°C° 0 mm 3 mps 745 mmHg 74%
03:00 +18°C° 0 mm 3 mps 745 mmHg 75%
04:00 +18°C° 0 mm 3 mps 745 mmHg 74%
05:00 +18°C° 0 mm 3 mps 746 mmHg 73%
06:00 +18°C° 0 mm 3 mps 746 mmHg 71%
07:00 +20°C° 0 mm 3 mps 746 mmHg 65%
08:00 +22°C° 0 mm 3 mps 746 mmHg 59%
09:00 +25°C° 0 mm 2 mps 747 mmHg 53%
10:00 +26°C° 0 mm 2 mps 747 mmHg 49%
11:00 +27°C° 0 mm 2 mps 747 mmHg 45%
12:00 +29°C° 0 mm 2 mps 747 mmHg 42%
13:00 +29°C° 0 mm 2 mps 747 mmHg 41%
14:00 +29°C° 0 mm 2 mps 747 mmHg 40%
15:00 +29°C° 0 mm 2 mps 746 mmHg 38%
16:00 +29°C° 0 mm 3 mps 746 mmHg 40%
17:00 +29°C° 0 mm 3 mps 746 mmHg 41%
18:00 +28°C° 0 mm 3 mps 746 mmHg 42%
19:00 +27°C° 0 mm 3 mps 746 mmHg 46%
20:00 +25°C° 0 mm 3 mps 747 mmHg 50%
21:00 +22°C° 0 mm 3 mps 747 mmHg 54%
22:00 +21°C° 0 mm 3 mps 747 mmHg 57%
23:00 +21°C° 0 mm 2 mps 747 mmHg 59%

19 July, Sunday

Time Temperature Precipitation Wind Pressure Humidity
00:00 +20°C° 0 mm 2 mps 747 mmHg 62%
01:00 +20°C° 0 mm 2 mps 747 mmHg 65%
02:00 +19°C° 0 mm 2 mps 747 mmHg 68%
03:00 +19°C° 0 mm 2 mps 747 mmHg 71%
04:00 +19°C° 0 mm 2 mps 747 mmHg 72%
05:00 +19°C° 0 mm 2 mps 747 mmHg 73%
06:00 +19°C° 0 mm 2 mps 747 mmHg 73%
07:00 +21°C° 0 mm 2 mps 747 mmHg 67%
08:00 +24°C° 0 mm 2 mps 747 mmHg 60%
09:00 +25°C° 0 mm 2 mps 747 mmHg 53%
10:00 +26°C° 0 mm 2 mps 747 mmHg 49%
11:00 +28°C° 0 mm 2 mps 746 mmHg 44%
12:00 +29°C° 0 mm 3 mps 746 mmHg 40%
13:00 +29°C° 0 mm 3 mps 746 mmHg 39%
14:00 +30°C° 0 mm 3 mps 746 mmHg 38%
15:00 +30°C° 0 mm 3 mps 745 mmHg 38%
16:00 +29°C° 0 mm 3 mps 745 mmHg 40%
17:00 +29°C° 0 mm 4 mps 745 mmHg 43%
18:00 +29°C° 0 mm 4 mps 744 mmHg 45%
19:00 +27°C° 0 mm 4 mps 745 mmHg 50%
20:00 +25°C° 0 mm 3 mps 745 mmHg 54%
21:00 +24°C° 0 mm 3 mps 745 mmHg 59%
22:00 +22°C° 0 mm 3 mps 745 mmHg 58%
23:00 +21°C° 0 mm 3 mps 744 mmHg 58%

20 July, Monday

Time Temperature Precipitation Wind Pressure Humidity
00:00 +20°C° 0 mm 2 mps 744 mmHg 58%
01:00 +20°C° 0 mm 2 mps 744 mmHg 60%
02:00 +19°C° 0 mm 2 mps 744 mmHg 62%
03:00 +19°C° 0 mm 2 mps 744 mmHg 63%
04:00 +19°C° 0 mm 2 mps 744 mmHg 65%
05:00 +19°C° 0 mm 2 mps 744 mmHg 66%
06:00 +19°C° 0 mm 2 mps 744 mmHg 68%
07:00 +21°C° 0 mm 2 mps 744 mmHg 62%
08:00 +24°C° 0 mm 2 mps 743 mmHg 55%
09:00 +26°C° 0 mm 2 mps 743 mmHg 49%
10:00 +27°C° 0 mm 2 mps 743 mmHg 45%
11:00 +28°C° 0 mm 2 mps 743 mmHg 42%
12:00 +29°C° 0 mm 2 mps 743 mmHg 39%
13:00 +29°C° 0 mm 2 mps 743 mmHg 38%
14:00 +30°C° 0 mm 1 mps 742 mmHg 37%
15:00 +30°C° 0 mm 1 mps 742 mmHg 37%
16:00 +29°C° 0 mm 1 mps 741 mmHg 38%
17:00 +29°C° 0 mm 1 mps 741 mmHg 38%
18:00 +27°C° 0 mm 0 mps 741 mmHg 39%
19:00 +28°C° 0 mm 1 mps 741 mmHg 42%
20:00 +27°C° 0 mm 1 mps 741 mmHg 45%
21:00 +25°C° 0 mm 2 mps 740 mmHg 47%
22:00 +25°C° 0 mm 2 mps 740 mmHg 50%
23:00 +24°C° 0 mm 2 mps 740 mmHg 53%
Show more